Now Accepting Applications for A&P Mechanics and Line Technicians

CLICK HERE TO APPLY

Fuel Prices

100LL: $4.06 (self-service)
100LL: $4.72 (full-service)
Jet-A: $3.47 (full-service)

Updated: July 19, 2017

Pilot Training

We offer pilot training from the basic private pilot course through ATP. We also provide aircraft rentals to qualified pilots looking for a place to fly.

Visit our school

Reservations

Are you planning a stop in Merritt Island? Need a tie-down or hangar spot? Let us know ahead of time and we'll be awaiting your arrival.

Plan Your Stop

Located at the Merritt Island Airport (KCOI), Space Coast Aviation is the premier FBO for all of your needs. We’re the closest FBO to Cocoa Beach, Kennedy Space Center and Port Canaveral.

Swing by and enjoy our competitive fuel prices, refreshments, on-site maintenance, car rental services and much more.

Airport Information

Identifier: KCOI
Non-Towered
Runway: 11 / 29
3601 X 75 ft
Surface: Asphalt

CTAF/UNICOM: 122.975
AWOS-3: 119.025
ORL APP: 132.65

Area Weather

Patrick AFB (KCOF) METAR:

KCOF 252158Z AUTO 13009KT 10SM CLR 31/26 A3008 RMK AO2 SLP190 T03060262 $

Titusville (KTIX) METAR:

KTIX 252155Z 12008KT 7SM SCT050 33/25 A3009

Melbourne (KMLB) METAR:

KMLB 252206Z 12010KT 10SM VCTS FEW055 32/26 A3008 RMK AO2 T03170261

Hours of Operation

Mon: 7:00am - 8:00pm EST
Tue: 7:00am - 8:00pm EST
Wed: 7:00am - 8:00pm EST
Thu: 7:00am - 8:00pm EST
Fri: 7:00am - 8:00pm EST
Sat: 7:00am - 8:00pm EST
Sun: 7:00am - 8:00pm EST

Contact Us

Merritt Island Airport
900 Airport Road
Merritt Island, FL 32952

P: +1 (321) 453-2222